Flag for Morocco Weather past 2 weeks in Rabat, Morocco

52 °F

Scattered clouds.

Feels Like: 51 °F
Forecast: 52 / 63 °F
Wind: 3 mph from Southeast

Location: Rabat-Sale

Current Time: Nov 27, 2015 at 8:40:16 AM

Latest Report: Nov 27, 2015 at 8:00 AM

Visibility: 3 mi

Pressure: 30.04 "Hg

Humidity: 94%

Dew point: 50 °F

Location of RabatLocation

Historic Weather in Rabat — Graph


Rabat temperature yesterday

Maximum temperature yesterday: 68 °F (at 12:30 PM)
Minimum temperature yesterday: 48 °F (at 12:00 AM)
Average temperature yesterday: 57 °F

Past Weeks' High & Low Weather Summary

High72 °F (Nov 12, 12:30 PM)100% (Nov 12, 6:30 AM)30.42 "Hg (Nov 12, 6:30 AM)
Low43 °F (Nov 24, 1:30 AM)45% (Nov 24, 1:00 PM)29.95 "Hg (Nov 23, 3:00 AM)
Average59 °F82%30.22 "Hg
* Reported Nov 12 6:00 AM — Nov 27 6:30 AM, Rabat, Weather by CustomWeather, © 2015

Note: Actual official high and low records may vary slightly from our data, if they occured in-between our weather recording intervals... More about our weather records


Rabat weather history for previous 24 hours

Time TempWeatherWind HumidityBarometerVisibility
6:30 AM
Fri, Nov 27
54 °FPartly sunny.3 mph94%30.01 "Hg3 mi
6:00 AM54 °FPassing clouds.5 mph94%30.01 "Hg3 mi
5:30 AM54 °FPassing clouds.5 mph94%30.01 "Hg3 mi
5:00 AM54 °FPassing clouds.2 mph100%30.01 "Hg3 mi
4:00 AM54 °FFog.3 mph94%30.01 "Hg2 mi
3:00 AM54 °FCool.2 mph94%30.04 "Hg2 mi
2:00 AM54 °FFog.No wind94%30.04 "Hg2 mi
1:30 AM54 °FFog.2 mph94%30.04 "Hg2 mi
1:00 AM52 °FFog.1 mph94%30.07 "Hg2 mi
12:30 AM54 °FFog.2 mph94%30.07 "Hg2 mi
12:00 AM54 °FFog.No wind94%30.07 "Hg2 mi
11:30 PM
Thu, Nov 26
54 °FPassing clouds.3 mph94%30.07 "Hg3 mi
11:00 PM52 °FPassing clouds.2 mph94%30.07 "Hg3 mi
10:00 PM54 °FClear.2 mph94%30.09 "Hg3 mi
9:30 PM55 °FClear.5 mph94%30.09 "Hg3 mi
9:00 PM52 °FClear.2 mph94%30.09 "Hg3 mi
8:30 PM54 °FClear.3 mph88%30.09 "Hg3 mi
8:00 PM54 °FPassing clouds.2 mph94%30.09 "Hg5 mi
7:30 PM54 °FPassing clouds.No wind88%30.09 "Hg5 mi
7:00 PM55 °FPassing clouds.1 mph88%30.09 "Hg5 mi
6:30 PM57 °FPassing clouds.1 mph88%30.09 "Hg5 mi
6:00 PM59 °FPassing clouds.No wind88%30.09 "Hg5 mi
5:30 PM61 °FPassing clouds.3 mph83%30.09 "Hg5 mi
5:00 PM63 °FPassing clouds.6 mph83%30.09 "Hg5 mi
4:30 PM64 °FPassing clouds.6 mph78%30.09 "Hg5 mi
4:00 PM64 °FPassing clouds.6 mph73%30.09 "Hg5 mi
3:30 PM66 °FScattered clouds.8 mph64%30.09 "Hg5 mi
3:00 PM66 °FScattered clouds.8 mph68%30.12 "Hg5 mi
2:30 PM66 °FScattered clouds.9 mph64%30.12 "Hg5 mi
2:00 PM66 °FScattered clouds.7 mph64%30.12 "Hg5 mi
1:30 PM66 °FScattered clouds.7 mph60%30.15 "Hg5 mi
1:00 PM68 °FScattered clouds.3 mph56%30.15 "Hg5 mi
12:30 PM68 °FScattered clouds.3 mph60%30.18 "Hg5 mi
12:00 PM66 °FScattered clouds.5 mph60%30.21 "Hg5 mi
11:00 AM64 °FScattered clouds.5 mph68%30.24 "Hg5 mi
10:30 AM64 °FScattered clouds.2 mph68%30.24 "Hg5 mi
10:00 AM63 °FScattered clouds.2 mph68%30.24 "Hg5 mi
9:30 AM59 °FPassing clouds.6 mph77%30.24 "Hg5 mi
9:00 AM57 °FPassing clouds.6 mph77%30.24 "Hg5 mi
8:30 AM55 °FScattered clouds.3 mph82%30.24 "Hg5 mi
8:00 AM50 °FScattered clouds.3 mph88%30.24 "Hg5 mi
Weather by CustomWeather, © 2015

See weather overviewHow to use our weather pages